Flag for Argentina Weather past 2 weeks in Buenos Aires, Argentina

Now
55 °F

Clear.


Feels Like: 55 °F
Forecast: 46 / 60 °F
Wind: 2 mph from West

Location: Buenos Aires Airport

Current Time: Aug 1, 2015 at 3:57:41 AM

Latest Report: Aug 1, 2015 at 3:00 AM


Visibility: 10 mi

Pressure: 30.09 "Hg

Humidity: 63%

Dew point: 43 °F

Location of Buenos AiresLocation

Historic Weather in Buenos Aires — Graph

°F

Buenos Aires temperature yesterday

Maximum temperature yesterday: 66 °F (at 7:00 AM)
Minimum temperature yesterday: 59 °F (at 11:00 AM)
Average temperature yesterday: 63 °F

Past Weeks' High & Low Weather Summary

 TemperatureHumidityPressure
High72 °F (Jul 28, 4:00 PM)100% (Jul 30, 3:00 PM)30.33 "Hg (Jul 30, 3:00 PM)
Low43 °F (Jul 21, 4:00 AM)31% (Jul 19, 6:00 PM)29.65 "Hg (Jul 31, 5:00 AM)
Average56 °F77%30.09 "Hg
* Reported Jul 17 1:00 AM — Aug 1 1:00 AM, Buenos Aires, Weather by CustomWeather, © 2015

Note: Actual official high and low records may vary slightly from our data, if they occured in-between our weather recording intervals... More about our weather records

Advertising

Buenos Aires weather history for previous 24 hours

 ConditionsComfort  
Time TempWeatherWind HumidityBarometerVisibility
1:00 AM
Sat, Aug 1
57 °FClear.8 mph59%30.07 "Hg10 mi
12:00 AM57 °FClear.8 mph59%30.07 "Hg10 mi
11:00 PM
Fri, Jul 31
59 °FClear.7 mph68%30.04 "Hg10 mi
10:00 PM59 °FClear.8 mph68%30.04 "Hg10 mi
9:00 PM61 °FClear.9 mph68%30.01 "Hg10 mi
8:00 PM63 °FClear.12 mph68%29.98 "Hg10 mi
7:00 PM63 °FClear.16 mph73%29.92 "Hg10 mi
6:00 PM64 °FPassing clouds.12 mph73%29.89 "HgN/A
5:00 PM64 °FScattered clouds.12 mph73%29.86 "HgN/A
4:00 PM64 °FPartly sunny.14 mph73%29.83 "HgN/A
3:00 PM64 °FScattered clouds.18 mph68%29.80 "HgN/A
2:00 PM66 °FScattered clouds.18 mph68%29.80 "HgN/A
1:00 PM63 °FPassing clouds.12 mph83%29.80 "HgN/A
12:00 PM61 °FPartly sunny.12 mph88%29.77 "HgN/A
11:00 AM59 °FLight rain. Overcast.9 mph94%29.80 "Hg4 mi
10:00 AM61 °FRain. More clouds than sun.15 mph94%29.77 "Hg3 mi
9:00 AM63 °FLight rain. Fog.15 mph94%29.71 "Hg3 mi
8:00 AM64 °FStrong thunderstorms. Fog.20 mph94%29.71 "Hg1 mi
7:00 AM66 °FLight rain. Broken clouds.9 mph88%29.65 "Hg6 mi
6:00 AM64 °FPartly cloudy.3 mph88%29.65 "HgN/A
5:00 AM64 °FPartly cloudy.5 mph88%29.65 "HgN/A
4:00 AM64 °FPartly cloudy.6 mph88%29.68 "HgN/A
3:00 AM64 °FPassing clouds.5 mph88%29.71 "HgN/A
Weather by CustomWeather, © 2015

See weather overviewHow to use our weather pages